Location: Little Cypress
(30.1590°N, 93.7750°W)
Time: 08:42:46
(UTC-05:00)

Daily predictions for brighter satellites

Satellite Brightness Start Highest point End
(mag) Time Altitude Azimuth Time Altitude Azimuth Time Altitude Azimuth
Cosmos 2344 3.7 19:39:34 10° SSW 19:47:22 86° ESE 19:55:26 10° NNE
BREEZE-M DEB (TANK) 2.8 19:47:27 10° SSW 19:49:34 29° SE 19:53:31 10° ENE
NOSS 3-4 (A) 4.3 19:42:24 10° NNW 19:49:36 73° WSW 19:57:10 10° SSE
NOSS 3-4 (C) 4.3 19:42:30 10° NNW 19:49:42 73° WSW 19:57:17 10° SSE
FREGAT/IRIS 3.2 19:48:45 10° SE 19:51:36 37° ENE 19:54:28 10° N
Cosmos 1934 Rocket 4.1 19:49:01 10° SSE 19:54:58 54° E 20:00:53 10° NNE
Tiangong 1 3.2 19:58:59 10° NNW 20:00:43 15° NNE 20:02:27 10° NE
HJ-1C 4.3 19:57:52 10° SE 20:00:51 29° ENE 20:03:50 10° NNE
Geosat 4.5 19:56:41 10° NE 20:01:21 38° ESE 20:05:58 10° S
Meteor 1-22 Rocket 4.3 19:56:03 10° S 20:01:43 67° E 20:07:38 10° NNE
Cosmos 1437 Rocket 3.1 19:57:47 10° SSW 20:01:45 74° W 20:05:47 10° N
Yuri Rocket 3.0 19:57:52 10° W 20:02:19 69° S 20:06:15 11° E
Cosmos 1844 Rocket 4.2 19:58:13 10° SW 20:03:30 41° WNW 20:08:48 10° N
Delta 128 3.9 20:01:52 10° WSW 20:06:20 53° S 20:10:16 12° E
Cosmos 1937 Rocket 4.3 20:03:01 10° SSW 20:08:08 57° WNW 20:13:20 10° N
SJ-6B 2.6 20:05:49 10° SSE 20:09:31 69° ENE 20:13:14 10° N
SeaSat 1 2.8 20:05:08 10° SE 20:09:47 44° ENE 20:14:26 10° N
Cosmos 1812 Rocket 3.7 20:07:49 10° S 20:12:15 80° W 20:16:39 10° N
Cosmos 1378 3.0 20:08:48 10° N 20:12:33 69° E 20:16:15 10° SSE
SL-27 R/B 3.2 20:10:48 10° N 20:14:05 34° ENE 20:17:25 10° SE
H-2A R/B (2) 1.4 20:14:15 10° W 20:16:55 71° S 20:20:59 15° E
Cosmos 2278 Rocket 2.4 20:12:21 10° SSW 20:18:01 81° WNW 20:23:43 10° NNE
Cosmos 1821 Rocket 4.4 20:12:14 10° SSW 20:18:36 71° W 20:24:58 10° N
FENGYUN 3A 3.6 20:13:25 10° SSE 20:18:46 67° ENE 20:24:07 10° N
Cosmos 1833 Rocket 4.5 20:17:43 10° NNE 20:20:01 12° ENE 20:21:14 12° ENE
GP-B 4.5 20:19:19 16° ESE 20:20:56 19° E 20:24:03 10° NE
Meteor 1-4 Rocket 3.2 20:18:39 10° SSE 20:21:43 30° E 20:24:47 10° NNE
SWIFT 4.4 20:19:21 10° SW 20:22:17 18° S 20:25:13 10° SE
Resurs 01 Rocket 1.8 20:21:16 10° SSE 20:25:30 49° ENE 20:29:46 10° N
Cosmos 1544 3.1 20:24:25 10° S 20:27:55 51° E 20:31:29 10° NNE
Delta 2 Rocket 3.8 20:24:42 10° WNW 20:29:28 57° NNE 20:32:00 23° E
Helios 1B rocket 3.0 20:26:35 10° NNE 20:30:22 35° E 20:34:07 10° SSE
FengYun 1-2 T 4.2 20:24:50 10° SSE 20:30:22 79° ENE 20:35:59 10° N
H-2A R/B 2.8 20:27:40 10° SSE 20:31:27 59° ENE 20:35:18 10° N
Cosmos 2297 3.7 20:27:12 10° S 20:32:44 57° ESE 20:38:20 10° NNE
Cosmos 1758 3.4 20:28:56 10° SSE 20:32:45 50° E 20:36:37 10° NNE
ATLAS 5 CENTAUR R/B 2.1 20:29:28 10° S 20:33:41 38° ESE 20:38:08 10° NE
Helios 1A 4.0 20:33:38 24° E 20:34:30 26° ENE 20:37:59 10° NNE
Cosmos 1605 Rocket 4.0 20:30:25 10° S 20:36:37 85° E 20:42:58 10° N
GPS 2-05 Rocket1 3.0 20:33:45 10° WSW 20:37:18 71° NNW 20:39:10 26° ENE
Cosmos 2098 Rocket 4.3 20:32:28 10° SSE 20:39:09 60° E 20:46:35 10° NNE
Cosmos 1953 2.3 20:37:27 10° S 20:41:27 60° E 20:45:28 10° NNE
Cosmos-2242 3.7 20:44:00 30° E 20:44:00 30° E 20:47:22 10° NNE
Meteor 1-24 Rocket 4.2 20:43:32 10° NNW 20:49:00 62° W 20:54:41 10° S
Cosmos 372 Rocket 3.9 20:44:16 10° S 20:49:15 61° ESE 20:54:19 10° NNE
ALOS 3.2 20:45:44 10° S 20:50:14 49° W 20:54:46 10° NNW
Delta 2 Rocket 4.5 20:43:46 10° W 20:50:30 49° SSW 20:53:44 26° SE
Cosmos 1867 3.6 20:47:46 10° SSW 20:53:12 82° WNW 20:58:41 10° NNE
OAO 2 Rocket 4.2 20:48:59 10° SSW 20:53:34 32° SSE 20:54:07 31° SE
Cosmos 2082 Rocket 3.1 20:49:14 10° N 20:54:06 29° ENE 20:54:34 28° ENE
Cosmos 2123 Rocket 4.2 20:50:28 10° N 20:56:45 73° W 21:02:58 10° S
Cosmos 1802 Rocket 4.4 20:56:21 32° ESE 20:57:51 36° E 21:03:23 10° NNE
Cosmos 1271 Rocket 4.5 21:00:43 21° NNE 21:00:43 21° NNE 21:02:12 10° NNE
Spot 2 Rocket 3.8 20:56:55 10° S 21:01:59 69° WSW 21:07:05 10° NNW
USA 215 3.3 20:58:37 10° NE 21:05:10 83° NW 21:11:41 10° SW
ISS -3.4 21:04:24 10° SW 21:07:13 59° W 21:07:13 59° W
Resurs 1-3 4.1 21:03:56 10° S 21:08:13 57° W 21:12:32 10° NNW
Cosmos 2061 Rocket 4.1 21:03:20 10° SSE 21:09:28 53° E 21:15:41 10° NNE
Spot 1 4.1 21:10:46 50° SSE 21:11:57 81° ENE 21:16:44 10° N
Delta 168 4.2 21:15:19 10° WSW 21:17:12 24° SW 21:17:12 24° SW
RESURS DK-1 3.8 21:16:02 10° NW 21:19:48 35° WSW 21:21:41 23° SSW
Envisat 3.0 21:20:13 60° ENE 21:20:13 60° ENE 21:25:01 10° N
Timation 2 Rocket 4.4 21:14:33 10° N 21:20:08 40° ENE 21:20:08 40° ENE
Aurora 2 Rocket 3.4 21:14:37 10° WSW 21:20:50 45° S 21:20:55 45° S
Cosmos 1674 4.4 21:20:38 10° N 21:22:19 25° N 21:22:19 25° N
Cosmos 1408 Rocket 3.9 21:24:01 10° N 21:27:37 58° N 21:27:37 58° N
Cosmos 1459 Rocket 3.9 21:25:50 10° S 21:32:09 88° W 21:38:23 10° N
Cosmos 2173 Rocket 3.9 21:30:37 10° S 21:36:44 83° W 21:42:59 10° N
Tiangong 1 4.2 21:33:58 10° WNW 21:34:28 14° WNW 21:34:28 14° WNW
Cosmos 1048 Rocket 4.1 21:33:36 10° NNW 21:38:02 68° NNW 21:38:02 68° NNW
ERS-1 Rocket 4.5 21:43:25 26° NNE 21:43:25 26° NNE 21:45:40 10° N
Cosmos 1833 Rocket 3.4 21:58:50 10° NNW 22:02:59 49° NW 22:02:59 49° NW
Cosmos 2016 Rocket 4.4 22:08:49 60° WNW 22:08:49 60° WNW 22:14:27 10° N
ATLAS 5 CENTAUR R/B 4.3 22:15:11 10° W 22:18:28 19° NW 22:21:55 10° N
Cosmos 2082 Rocket 4.1 22:33:13 10° NW 22:36:28 25° WNW 22:36:28 25° WNW
CZ-3 Stage 3 4.4 23:03:38 10° W 23:12:45 33° W 23:12:45 33° W
